Terminal Aerodrome Forecast
Issued by NWS

Home | Current Version | Previous Version | Text Only | Print | Product List | Glossary On
Versions: 1 2 3 4 5 6 7 8 9 10 11 12 13 14 15 16 17 18 19 20 21 22 23 24
000
FTUS44 KOUN 261735
TAFPNC
TAF
KPNC 261735Z 2618/2718 20013G20KT P6SM BKN250
     FM270000 17010KT P6SM SCT060 BKN250
     FM271500 02010KT P6SM SCT250=

USA.gov is the U.S. government's official web portal to all federal, state and local government web resources and services.